| time (UTC) | temp F | wind direction | speed MPH | gust MPH | rain 1hr in | rain 24hr in | rain mn in | humidity % | barometer mb |
| 20260504233529 | 77 | 112 | 0.0 | 2.0 | 0.00 | 0.00 | 0.00 | 74 | |
| 20260504232529 | 76 | 116 | 1.0 | 3.0 | 0.00 | 0.00 | 0.00 | 79 | |
| 20260504231529 | 74 | 135 | 0.0 | 2.0 | 0.00 | 0.00 | 0.00 | 82 | |
| 20260504230529 | 73 | 141 | 1.0 | 4.0 | 0.00 | 0.00 | 0.00 | 84 | |
| 20260504225529 | 72 | 137 | 1.0 | 4.0 | 0.00 | 0.00 | 0.00 | 87 | |
| 20260504224529 | 71 | 135 | 0.0 | 1.0 | 0.00 | 0.00 | 0.00 | 88 | |
| 20260504223529 | 70 | 149 | 2.0 | 4.0 | 0.00 | 0.00 | 0.00 | 89 | |
| 20260504222529 | 70 | 135 | 0.0 | 2.0 | 0.00 | 0.00 | 0.00 | 91 | |
| 20260504221529 | 69 | 112 | 0.0 | 1.0 | 0.00 | 0.00 | 0.00 | 93 | |
| 20260504220529 | 68 | 112 | 0.0 | 1.0 | 0.00 | 0.00 | 0.00 | 95 | |
| 20260504215529 | 67 | 0.0 | 0.0 | 0.00 | 0.00 | 0.00 | 96 | ||
| 20260504214529 | 66 | 0.0 | 0.0 | 0.00 | 0.00 | 0.00 | 97 | ||
| 20260504213529 | 66 | 112 | 0.0 | 2.0 | 0.00 | 0.00 | 0.00 | 98 | |
| 20260504212529 | 66 | 112 | 0.0 | 2.0 | 0.00 | 0.00 | 0.00 | 98 | |
| 20260504211529 | 66 | 135 | 0.0 | 2.0 | 0.00 | 0.02 | 0.00 | 98 | |
| 20260504210529 | 66 | 135 | 0.0 | 2.0 | 0.00 | 0.05 | 0.00 | 98 | |
| 20260504205529 | 65 | 0.0 | 0.0 | 0.00 | 0.05 | 0.00 | 98 | ||
| 20260504204529 | 65 | 0.0 | 0.0 | 0.00 | 0.05 | 0.00 | 98 | ||
| 20260504203529 | 65 | 0.0 | 0.0 | 0.00 | 0.05 | 0.00 | 98 | ||
| 20260504202529 | 65 | 135 | 0.0 | 1.0 | 0.00 | 0.05 | 0.00 | 98 | |
| 20260504201529 | 65 | 102 | 0.0 | 2.0 | 0.00 | 0.05 | 0.00 | 98 | |
| 20260504200529 | 65 | 41 | 0.0 | 2.0 | 0.00 | 0.05 | 0.00 | 98 | |
| 20260504195529 | 65 | 0.0 | 0.0 | 0.00 | 0.05 | 0.00 | 98 | ||
| 20260504194529 | 66 | 0.0 | 0.0 | 0.00 | 0.05 | 0.00 | 98 | ||
| 20260504193529 | 65 | 22 | 0.0 | 2.0 | 0.00 | 0.05 | 0.00 | 99 | |
| 20260504192529 | 65 | 0.0 | 0.0 | 0.00 | 0.05 | 0.00 | 98 | ||
| 20260504191529 | 65 | 45 | 0.0 | 1.0 | 0.00 | 0.05 | 0.00 | 98 | |
| 20260504190529 | 65 | 45 | 0.0 | 2.0 | 0.00 | 0.05 | 0.00 | 98 | |
| 20260504185529 | 65 | 0 | 0.0 | 2.0 | 0.00 | 0.05 | 0.00 | 98 | |
| 20260504184529 | 65 | 0.0 | 0.0 | 0.00 | 0.05 | 0.00 | 98 | ||
| 20260504183529 | 65 | 0.0 | 0.0 | 0.00 | 0.05 | 0.00 | 98 | ||
| 20260504182529 | 66 | 0.0 | 0.0 | 0.00 | 0.05 | 0.00 | 98 | ||
| 20260504181529 | 66 | 0.0 | 0.0 | 0.00 | 0.05 | 0.00 | 98 | ||
| 20260504180529 | 66 | 0 | 0.0 | 1.0 | 0.00 | 0.05 | 0.00 | 98 | |
| 20260504175529 | 66 | 0.0 | 0.0 | 0.00 | 0.05 | 0.00 | 98 | ||
| 20260504174529 | 66 | 0.0 | 0.0 | 0.00 | 0.05 | 0.00 | 98 | ||
| 20260504173529 | 67 | 0 | 0.0 | 2.0 | 0.00 | 0.05 | 0.00 | 98 | |
| 20260504172529 | 67 | 0.0 | 0.0 | 0.00 | 0.05 | 0.00 | 98 | ||
| 20260504171529 | 67 | 0.0 | 0.0 | 0.00 | 0.05 | 0.00 | 98 | ||
| 20260504170529 | 67 | 0 | 0.0 | 2.0 | 0.00 | 0.05 | 0.00 | 98 | |
| 20260504150529 | 66 | 0.0 | 0.0 | 0.00 | 0.05 | 0.00 | 98 | ||
| 20260504140529 | 67 | 0.0 | 0.0 | 0.00 | 0.05 | 0.00 | 97 | ||
| 20260504130529 | 67 | 0.0 | 0.0 | 0.00 | 0.05 | 0.05 | 96 | ||
| 20260504110529 | 69 | 0.0 | 0.0 | 0.00 | 0.05 | 0.05 | 94 | ||
| 20260504100541 | 68 | 0.0 | 0.0 | 0.00 | 0.05 | 0.05 | 96 | ||
| 20260504081529 | 70 | 0.0 | 0.0 | 0.00 | 0.05 | 0.05 | 91 | ||
| 20260504080529 | 70 | 0.0 | 0.0 | 0.00 | 0.05 | 0.05 | 90 | ||
| 20260504050529 | 79 | 112 | 1.0 | 3.0 | 0.00 | 0.05 | 0.05 | 71 | |
| 20260504045529 | 80 | 190 | 1.0 | 4.0 | 0.00 | 0.05 | 0.05 | 67 | |
| 20260504044529 | 79 | 160 | 1.0 | 2.0 | 0.00 | 0.05 | 0.05 | 66 | |
| 20260504043529 | 79 | 167 | 1.0 | 2.0 | 0.00 | 0.05 | 0.05 | 68 | |
| 20260504042529 | 78 | 191 | 1.0 | 4.0 | 0.00 | 0.05 | 0.05 | 67 | |
| 20260504041529 | 78 | 132 | 0.0 | 2.0 | 0.00 | 0.05 | 0.05 | 68 | |
| 20260504040529 | 78 | 112 | 0.0 | 2.0 | 0.00 | 0.05 | 0.05 | 69 | |
| 20260504035529 | 78 | 315 | 0.0 | 2.0 | 0.00 | 0.05 | 0.05 | 68 | |
| 20260504034529 | 78 | 180 | 0.0 | 2.0 | 0.00 | 0.05 | 0.05 | 68 | |
| 20260504033529 | 78 | 194 | 1.0 | 4.0 | 0.00 | 0.05 | 0.05 | 68 | |
| 20260504032529 | 78 | 135 | 0.0 | 2.0 | 0.00 | 0.05 | 0.05 | 69 | |
| 20260504031529 | 78 | 186 | 1.0 | 4.0 | 0.00 | 0.05 | 0.05 | 72 | |
| 20260504030529 | 78 | 118 | 2.0 | 5.0 | 0.00 | 0.05 | 0.05 | 72 | |
| 20260504025529 | 77 | 135 | 1.0 | 5.0 | 0.00 | 0.05 | 0.05 | 72 | |
| 20260504024529 | 77 | 153 | 1.0 | 4.0 | 0.00 | 0.05 | 0.05 | 72 | |
| 20260504023529 | 76 | 158 | 1.0 | 2.0 | 0.00 | 0.05 | 0.05 | 74 | |
| 20260504022529 | 77 | 202 | 0.0 | 2.0 | 0.00 | 0.05 | 0.05 | 73 | |
| 20260504021529 | 78 | 179 | 1.0 | 5.0 | 0.00 | 0.05 | 0.05 | 71 | |
| 20260504020529 | 77 | 89 | 0.0 | 2.0 | 0.00 | 0.05 | 0.05 | 70 | |
| 20260504015529 | 76 | 180 | 0.0 | 1.0 | 0.00 | 0.05 | 0.05 | 70 | |
| 20260504014529 | 77 | 180 | 0.0 | 1.0 | 0.00 | 0.05 | 0.05 | 71 | |
| 20260504013529 | 77 | 158 | 0.0 | 2.0 | 0.00 | 0.05 | 0.05 | 73 | |
| 20260504012529 | 77 | 153 | 1.0 | 5.0 | 0.00 | 0.05 | 0.05 | 75 | |
| 20260504011529 | 77 | 0.0 | 0.0 | 0.00 | 0.05 | 0.05 | 75 | ||
| 20260504010529 | 77 | 202 | 0.0 | 1.0 | 0.00 | 0.05 | 0.05 | 76 | |
| 20260504005529 | 78 | 202 | 0.0 | 1.0 | 0.00 | 0.05 | 0.05 | 74 | |
| 20260504004529 | 77 | 0.0 | 0.0 | 0.00 | 0.05 | 0.05 | 74 | ||
| 20260504003529 | 77 | 202 | 0.0 | 1.0 | 0.00 | 0.05 | 0.05 | 74 | |
| 20260504002529 | 78 | 202 | 0.0 | 2.0 | 0.00 | 0.05 | 0.05 | 74 | |
| 20260504001529 | 79 | 338 | 0.0 | 1.0 | 0.00 | 0.05 | 0.05 | 73 | |
| 20260504000529 | 80 | 158 | 1.0 | 5.0 | 0.00 | 0.05 | 0.05 | 71 | |
| 20260503235528 | 78 | 202 | 0.0 | 2.0 | 0.00 | 0.05 | 0.05 | 74 | |
| 20260503234529 | 79 | 204 | 1.0 | 5.0 | 0.00 | 0.05 | 0.05 | 75 |